Location: Cheyres
(46.8153°N, 6.7877°E)
Time: 00:57:55
(UTC+00:00)

Tiros 1 - Pass Details

Date: 29 May 2022
Orbit: 629 x 663 km, 48.4° (Epoch: 05 July)

Event Time Altitude Azimuth Distance (km) Brightness Sun altitude
Exits shadow 02:07:57 - 275° (W) 2,744 10.1 -12.9°
Reaches altitude 10° 02:09:49 10° 277° (W) 2,015 9.4 -12.7°
Maximum altitude 02:14:27 72° 1° (N) 672 7.4 -12.2°
Drops below altitude 10° 02:19:08 10° 87° (E) 2,034 10.3 -11.7°
Sets 02:21:30 0° 90° (E) 2,949 11.2 -11.4°
